Flag for Romania Weather past 2 weeks in Iasi, Romania

63 °F

Passing clouds.

Feels Like: 63 °F
Forecast: 45 / 61 °F
Wind: 5 mph from East

Location: Iasi Airport

Current Time: Oct 6, 2015 at 8:12:03 PM

Latest Report: Oct 6, 2015 at 7:30 PM

Visibility: N/A

Pressure: 29.83 "Hg

Humidity: 73%

Dew point: 54 °F

Location of IasiLocation

Historic Weather in Iasi — Graph


Iasi temperature yesterday

Maximum temperature yesterday: 72 °F (at 2:30 PM)
Minimum temperature yesterday: 55 °F (at 5:00 AM)
Average temperature yesterday: 63 °F

Past Weeks' High & Low Weather Summary

High84 °F (Sep 23, 4:00 PM)100% (Sep 24, 7:00 AM)30.45 "Hg (Sep 24, 7:00 AM)
Low41 °F (Oct 2, 7:30 AM)29% (Oct 3, 4:30 PM)29.80 "Hg (Oct 6, 3:30 PM)
Average62 °F72%30.11 "Hg
* Reported Sep 21 7:00 PM — Oct 6 7:00 PM, Iasi, Weather by CustomWeather, © 2015

Note: Actual official high and low records may vary slightly from our data, if they occured in-between our weather recording intervals... More about our weather records


Iasi weather history for previous 24 hours

Time TempWeatherWind HumidityBarometerVisibility
7:00 PM
Tue, Oct 6
61 °FSprinkles. Scattered clouds.12 mph83%29.83 "HgN/A
6:30 PM66 °FThunderstorms. Partly sunny.20 mph56%29.83 "HgN/A
6:00 PM70 °FPassing clouds.8 mph60%29.80 "HgN/A
5:30 PM72 °FPassing clouds.7 mph53%29.80 "HgN/A
5:00 PM72 °FPassing clouds.5 mph53%29.80 "HgN/A
4:30 PM72 °FPassing clouds.5 mph57%29.80 "HgN/A
4:00 PM72 °FPassing clouds.6 mph53%29.80 "HgN/A
3:30 PM72 °FPassing clouds.7 mph57%29.80 "HgN/A
3:00 PM70 °FPassing clouds.6 mph64%29.83 "HgN/A
2:30 PM68 °FPassing clouds.8 mph69%29.83 "HgN/A
2:00 PM68 °FPassing clouds.9 mph69%29.83 "HgN/A
1:30 PM68 °FPassing clouds.7 mph69%29.83 "HgN/A
1:00 PM70 °FPassing clouds.7 mph64%29.86 "HgN/A
12:30 PM64 °FPassing clouds.7 mph78%29.86 "HgN/A
12:00 PM66 °FPassing clouds.7 mph73%29.86 "HgN/A
11:30 AM66 °FPassing clouds.7 mph73%29.86 "HgN/A
11:00 AM64 °FScattered clouds.6 mph78%29.86 "HgN/A
10:30 AM63 °FPassing clouds.8 mph83%29.86 "HgN/A
10:00 AM61 °FPassing clouds.7 mph88%29.86 "HgN/A
9:30 AM59 °FPassing clouds.5 mph94%29.86 "HgN/A
9:00 AM57 °FScattered clouds.3 mph94%29.86 "HgN/A
8:30 AM57 °FScattered clouds.3 mph94%29.86 "HgN/A
8:00 AM55 °FPassing clouds.3 mph94%29.86 "HgN/A
7:30 AM55 °FPassing clouds.2 mph94%29.86 "HgN/A
7:00 AM55 °FClear.3 mph94%29.86 "Hg10 mi
6:30 AM55 °FClear.3 mph94%29.86 "Hg10 mi
6:00 AM55 °FPassing clouds.3 mph94%29.86 "HgN/A
5:30 AM57 °FClear.3 mph94%29.86 "Hg10 mi
5:00 AM57 °FClear.1 mph94%29.86 "Hg10 mi
4:00 AM57 °FClear.3 mph94%29.86 "Hg10 mi
3:00 AM59 °FClear.3 mph88%29.86 "Hg10 mi
2:00 AM57 °FClear.3 mph94%29.89 "Hg10 mi
1:00 AM59 °FClear.3 mph88%29.89 "Hg10 mi
12:00 AM61 °FClear.5 mph83%29.89 "Hg10 mi
11:00 PM
Mon, Oct 5
61 °FClear.3 mph83%29.89 "Hg10 mi
10:00 PM61 °FClear.1 mph83%29.89 "Hg10 mi
9:00 PM61 °FPassing clouds.3 mph83%29.89 "HgN/A
8:30 PM63 °FPassing clouds.2 mph73%29.89 "HgN/A
8:00 PM64 °FClear.1 mph68%29.92 "Hg10 mi
Weather by CustomWeather, © 2015

See weather overviewHow to use our weather pages